When you browse on this site, cookies collect data to enhance your experience and personalize the content and advertising you see.
Visit our Privacy Policy to learn more. By continuing to use the site, you agree to this use of cookies and data.
EN

Hourly Weather Kurytyba

Today, 25 September, Friday

Time Temperature Precipitation Wind Pressure Humidity
00:00 +15°C° 0 mm 1 mps 684 mmHg 95%
01:00 +13°C° 0 mm 0 mps 683 mmHg 95%
02:00 +13°C° 0 mm 0 mps 683 mmHg 96%
03:00 +13°C° 0 mm 0 mps 683 mmHg 96%
04:00 +12°C° 0 mm 0 mps 683 mmHg 96%
05:00 +12°C° 0 mm 0 mps 683 mmHg 95%
06:00 +12°C° 0 mm 0 mps 684 mmHg 95%
07:00 +15°C° 0 mm 0 mps 685 mmHg 79%
08:00 +18°C° 0 mm 0 mps 685 mmHg 64%
09:00 +21°C° 0 mm 0 mps 686 mmHg 49%
10:00 +24°C° 0 mm 0 mps 686 mmHg 42%
11:00 +26°C° 0 mm 0 mps 686 mmHg 35%
12:00 +29°C° 0 mm 0 mps 686 mmHg 27%
13:00 +31°C° 0 mm 1 mps 685 mmHg 27%
14:00 +30°C° 0 mm 1 mps 684 mmHg 27%
15:00 +30°C° 0 mm 1 mps 683 mmHg 27%
16:00 +28°C° 0 mm 1 mps 683 mmHg 37%
17:00 +25°C° 0 mm 2 mps 682 mmHg 47%
18:00 +23°C° 0 mm 2 mps 682 mmHg 57%
19:00 +20°C° 0 mm 2 mps 682 mmHg 63%
20:00 +20°C° 0 mm 1 mps 682 mmHg 68%
21:00 +19°C° 0 mm 1 mps 682 mmHg 73%
22:00 +18°C° 0 mm 1 mps 682 mmHg 73%
23:00 +18°C° 0 mm 1 mps 682 mmHg 72%

Tomorrow, 26 September, Saturday

Time Temperature Precipitation Wind Pressure Humidity
00:00 +16°C° 0 mm 1 mps 682 mmHg 71%
01:00 +16°C° 0 mm 1 mps 681 mmHg 72%
02:00 +16°C° 0 mm 1 mps 681 mmHg 74%
03:00 +15°C° 0 mm 1 mps 681 mmHg 75%
04:00 +15°C° 0 mm 1 mps 681 mmHg 76%
05:00 +15°C° 0 mm 1 mps 681 mmHg 78%
06:00 +14°C° 0 mm 1 mps 681 mmHg 79%
07:00 +18°C° 0 mm 1 mps 681 mmHg 68%
08:00 +21°C° 0 mm 1 mps 682 mmHg 57%
09:00 +24°C° 0 mm 1 mps 683 mmHg 46%
10:00 +27°C° 0 mm 1 mps 683 mmHg 40%
11:00 +29°C° 0 mm 2 mps 683 mmHg 34%
12:00 +31°C° 0 mm 2 mps 682 mmHg 29%
13:00 +33°C° 0 mm 3 mps 682 mmHg 27%
14:00 +34°C° 0 mm 3 mps 681 mmHg 26%
15:00 +34°C° 0 mm 3 mps 680 mmHg 24%
16:00 +31°C° 0 mm 2 mps 680 mmHg 33%
17:00 +28°C° 0 mm 2 mps 679 mmHg 43%
18:00 +26°C° 0 mm 1 mps 679 mmHg 52%
19:00 +24°C° 0 mm 1 mps 679 mmHg 60%
20:00 +22°C° 0 mm 1 mps 679 mmHg 67%
21:00 +21°C° 0 mm 1 mps 679 mmHg 75%
22:00 +21°C° 0 mm 1 mps 679 mmHg 72%
23:00 +21°C° 0 mm 1 mps 679 mmHg 70%

Day after tomorrow, 27 September, Sunday

Time Temperature Precipitation Wind Pressure Humidity
00:00 +21°C° 0 mm 1 mps 679 mmHg 67%
01:00 +21°C° 0 mm 1 mps 679 mmHg 64%
02:00 +19°C° 0 mm 0 mps 678 mmHg 61%
03:00 +19°C° 0 mm 0 mps 678 mmHg 57%
04:00 +20°C° 0 mm 1 mps 678 mmHg 58%
05:00 +20°C° 0 mm 1 mps 678 mmHg 59%
06:00 +20°C° 0 mm 1 mps 678 mmHg 61%
07:00 +23°C° 0 mm 2 mps 679 mmHg 51%
08:00 +26°C° 0 mm 2 mps 680 mmHg 41%
09:00 +29°C° 0 mm 3 mps 681 mmHg 31%
10:00 +31°C° 0 mm 3 mps 681 mmHg 27%
11:00 +34°C° 0 mm 4 mps 680 mmHg 24%
12:00 +36°C° 0 mm 4 mps 680 mmHg 21%
13:00 +36°C° 0 mm 4 mps 679 mmHg 22%
14:00 +35°C° 0 mm 4 mps 679 mmHg 23%
15:00 +35°C° 0 mm 4 mps 678 mmHg 24%
16:00 +33°C° 0 mm 3 mps 678 mmHg 29%
17:00 +30°C° 0 mm 2 mps 678 mmHg 34%
18:00 +28°C° 0 mm 1 mps 677 mmHg 39%
19:00 +27°C° 0 mm 1 mps 678 mmHg 41%
20:00 +26°C° 0 mm 1 mps 678 mmHg 43%
21:00 +25°C° 0 mm 1 mps 678 mmHg 46%
22:00 +25°C° 0 mm 1 mps 678 mmHg 47%
23:00 +24°C° 0 mm 1 mps 678 mmHg 49%

28 September, Monday

Time Temperature Precipitation Wind Pressure Humidity
00:00 +23°C° 0 mm 1 mps 678 mmHg 51%
01:00 +23°C° 0 mm 1 mps 677 mmHg 52%
02:00 +23°C° 0 mm 1 mps 677 mmHg 53%
03:00 +23°C° 0 mm 1 mps 676 mmHg 54%
04:00 +22°C° 0 mm 1 mps 676 mmHg 56%
05:00 +22°C° 0 mm 1 mps 677 mmHg 57%
06:00 +21°C° 0 mm 1 mps 677 mmHg 59%
07:00 +23°C° 0 mm 1 mps 678 mmHg 57%
08:00 +25°C° 0 mm 2 mps 678 mmHg 55%
09:00 +26°C° 0 mm 2 mps 679 mmHg 52%
10:00 +28°C° 0 mm 3 mps 679 mmHg 47%
11:00 +30°C° 0 mm 3 mps 680 mmHg 42%
12:00 +33°C° 0 mm 4 mps 680 mmHg 37%
13:00 +31°C° 0 mm 3 mps 679 mmHg 39%
14:00 +31°C° 0 mm 3 mps 679 mmHg 41%
15:00 +30°C° 0 mm 3 mps 679 mmHg 43%
16:00 +28°C° 1.6 mm 2 mps 679 mmHg 57%
17:00 +25°C° 1.6 mm 2 mps 678 mmHg 71%
18:00 +22°C° 1.6 mm 1 mps 678 mmHg 85%
19:00 +20°C° 0.4 mm 2 mps 679 mmHg 87%
20:00 +19°C° 0.4 mm 2 mps 680 mmHg 90%
21:00 +18°C° 0.4 mm 2 mps 680 mmHg 92%
22:00 +18°C° 0 mm 2 mps 681 mmHg 91%
23:00 +17°C° 0 mm 2 mps 681 mmHg 91%

29 September, Tuesday

Time Temperature Precipitation Wind Pressure Humidity
00:00 +17°C° 0 mm 2 mps 681 mmHg 90%
01:00 +17°C° 0 mm 2 mps 681 mmHg 89%
02:00 +16°C° 0 mm 2 mps 681 mmHg 89%
03:00 +15°C° 0 mm 2 mps 680 mmHg 88%
04:00 +15°C° 0 mm 2 mps 680 mmHg 89%
05:00 +14°C° 0 mm 2 mps 680 mmHg 89%
06:00 +13°C° 0 mm 2 mps 680 mmHg 90%
07:00 +14°C° 0 mm 2 mps 681 mmHg 83%
08:00 +16°C° 0 mm 2 mps 681 mmHg 76%
09:00 +17°C° 0 mm 2 mps 682 mmHg 69%
10:00 +20°C° 0 mm 2 mps 682 mmHg 62%
11:00 +23°C° 0 mm 2 mps 682 mmHg 55%
12:00 +26°C° 0 mm 2 mps 683 mmHg 48%
13:00 +26°C° 0 mm 2 mps 682 mmHg 48%
14:00 +27°C° 0 mm 2 mps 682 mmHg 47%
15:00 +28°C° 0 mm 2 mps 681 mmHg 46%
16:00 +25°C° 0 mm 2 mps 681 mmHg 55%
17:00 +23°C° 0 mm 2 mps 680 mmHg 64%
18:00 +20°C° 0 mm 2 mps 680 mmHg 73%
19:00 +18°C° 0 mm 2 mps 680 mmHg 78%
20:00 +17°C° 0 mm 2 mps 680 mmHg 83%
21:00 +16°C° 0 mm 1 mps 681 mmHg 87%
22:00 +16°C° 0 mm 1 mps 680 mmHg 88%
23:00 +16°C° 0 mm 1 mps 680 mmHg 88%

30 September, Wednesday

Time Temperature Precipitation Wind Pressure Humidity
00:00 +16°C° 0 mm 1 mps 680 mmHg 89%
01:00 +16°C° 0 mm 1 mps 680 mmHg 88%
02:00 +16°C° 0 mm 1 mps 680 mmHg 88%
03:00 +16°C° 0 mm 1 mps 679 mmHg 88%
04:00 +16°C° 0 mm 1 mps 679 mmHg 88%
05:00 +15°C° 0 mm 1 mps 679 mmHg 89%
06:00 +15°C° 0 mm 1 mps 679 mmHg 89%
07:00 +20°C° 0 mm 1 mps 680 mmHg 76%
08:00 +23°C° 0 mm 2 mps 681 mmHg 62%
09:00 +26°C° 0 mm 2 mps 681 mmHg 49%
10:00 +29°C° 0 mm 3 mps 681 mmHg 41%
11:00 +33°C° 0 mm 4 mps 681 mmHg 34%
12:00 +35°C° 0 mm 4 mps 681 mmHg 26%
13:00 +35°C° 0 mm 4 mps 681 mmHg 25%
14:00 +36°C° 0 mm 4 mps 680 mmHg 24%
15:00 +36°C° 0 mm 4 mps 679 mmHg 22%
16:00 +34°C° 0 mm 3 mps 679 mmHg 30%
17:00 +30°C° 0 mm 2 mps 679 mmHg 37%
18:00 +28°C° 0 mm 1 mps 679 mmHg 45%
19:00 +26°C° 0 mm 1 mps 679 mmHg 51%
20:00 +25°C° 0 mm 1 mps 679 mmHg 58%
21:00 +23°C° 0 mm 1 mps 679 mmHg 65%
22:00 +22°C° 0 mm 1 mps 679 mmHg 67%
23:00 +22°C° 0 mm 1 mps 679 mmHg 69%
Show more